Location: Pedholt
(56.0260°N, 10.2097°E)
Time: 20:37:41
(UTC+00:00)

SR - Pass Details

Date: 27 July 2021
Orbit: 581 x 873 km, 66.7° (Epoch: 27 September)

Event Time Altitude Azimuth Distance (km) Brightness Sun altitude
Rises 14:48:23 0° 315° (NW) 3,209 ? 37.3°
Reaches altitude 10° 14:50:53 10° 312° (NW) 2,232 ? 37.0°
Maximum altitude 14:55:51 60° 234° (SW) 784 ? 36.3°
Drops below altitude 10° 15:00:23 10° 155° (SSE) 2,038 ? 35.7°
Sets 15:02:35 0° 151° (SSE) 2,906 ? 35.4°
